Regional Weather Roundup
Issued by NWS Boston, MA

Home | Current Version | Previous Version | Text Only | Print | Product List | Glossary On
Versions: 1 2 3 4 5 6 7 8 9 10 11 12 13 14 15 16 17 18 19 20 21 22 23 24 25 26 27 28 29 30 31 32 33 34 35 36 37 38 39 40 41 42 43 44 45 46 47 48 49 50
000
ASUS41 KBOX 272010
RWRBOX

REGIONAL WEATHER ROUNDUP
NATIONAL WEATHER SERVICE TAUNTON MA
400 PM EDT MON MAR 27 2017

NOTE:  "FAIR" INDICATES FEW OR NO CLOUDS BELOW 12,000 FEET WITH NO
SIGNIFICANT WEATHER AND/OR OBSTRUCTIONS TO VISIBILITY.

MAZALL-272100-
EASTERN MASSACHUSETTS

CITY           SKY/WX    TMP DP  RH WIND       PRES   REMARKS
BOSTON         CLOUDY    44  42  93 NW6       30.02F
BEVERLY        CLOUDY    42  42 100 N8        30.02F FOG
LAWRENCE       CLOUDY    39  39 100 NE8       30.05S FOG
BEDFORD        CLOUDY    42  39  89 VRB6      30.01F FOG
BLUE HILL      NOT AVBL
NORWOOD        CLOUDY    44  42  93 N5        30.02F
MARSHFIELD     CLOUDY    45  45 100 CALM      30.00F FOG
PLYMOUTH       LGT RAIN  49  47  93 SW7       30.00F
TAUNTON        LGT RAIN  49  47  93 W6        30.00F
NEW BEDFORD    LGT RAIN  49  47  93 SW9       30.00F
$$

MAZALL-272100-
CAPE COD AND THE ISLANDS

CITY           SKY/WX    TMP DP  RH WIND       PRES   REMARKS
FALMOUTH       CLOUDY    46  46 100 MISG      30.02F
HYANNIS        LGT RAIN  47  47 100 S12G20    30.00F FOG
CHATHAM        RAIN      46  46 100 S10G16    30.02F VSB 1/2
PROVINCETOWN   LGT RAIN  45  45 100 S15       30.00F FOG
NANTUCKET      FOG       46  45  96 S17       30.03F VSB 1/4
MARTHAS VNYRD  LGT RAIN  47  45  93 S13       30.01F FOG
$$

MAZALL-272100-
CENTRAL AND WESTERN MASSACHUSETTS

CITY           SKY/WX    TMP DP  RH WIND       PRES   REMARKS
WORCESTER      FOG       37  36  96 NE7       29.99F VSB 1/4 WCI  32
FITCHBURG      CLOUDY    40  38  93 N6        30.02F FOG
ORANGE         CLOUDY    40  38  93 CALM      30.01F
SPRINGFIELD    CLOUDY    40  38  93 N5        30.00F
WESTFIELD      CLOUDY    40  39  97 N6        30.02F
NORTH ADAMS    CLOUDY    42  36  79 E6        29.99F
PITTSFIELD     CLOUDY    40  37  89 CALM      29.96F
$$

RIZALL-272100-
RHODE ISLAND

CITY           SKY/WX    TMP DP  RH WIND       PRES   REMARKS
PROVIDENCE     CLOUDY    47  44  90 NE6       30.00F FOG
NEWPORT        CLOUDY    47  47 100 SW3       29.99F FOG
BLOCK ISLAND   CLOUDY    47  46  97 SW16      30.01F
SMITHFIELD     LGT RAIN  41  41 100 N7        30.00F VSB 1/2
WESTERLY       CLOUDY    51  51 100 SW3       30.00S
$$

CTZALL-272100-
CONNECTICUT

CITY           SKY/WX    TMP DP  RH WIND       PRES   REMARKS
BRADLEY INTL   CLOUDY    40  38  93 N8        30.02F
HARTFORD       CLOUDY    40  38  93 N5        30.03F
BRIDGEPORT     CLOUDY    47  44  90 E5        30.01F FOG
DANBURY        CLOUDY    43  43 100 CALM      30.01F FOG
GROTON         CLOUDY    53  49  86 NW8       30.00F
NEW HAVEN      CLOUDY    43  41  93 N7        30.01F
CHESTER        NOT AVBL
MERIDEN        CLOUDY    42  38  85 E5        30.02F
WILLIMANTIC    LGT RAIN  46  44  93 CALM      30.01F
OXFORD         FOG       43  39  87 CALM      30.01F VSB 1/2
$$

MEZ002-015-021-024-NHZ003-005-008-011-012-014-VTZ005-008-272100-
NORTHERN NEW ENGLAND

CITY           SKY/WX    TMP DP  RH WIND       PRES   REMARKS
PORTLAND ME    LGT RAIN  36  34  92 E15G24    30.09F FOG     WCI  27
BANGOR ME      LGT SNOW  31  28  89 E8        30.18F FOG     WCI  23
CONCORD NH     CLOUDY    38  36  92 NE6       30.05F
MANCHESTER NH  CLOUDY    40  37  89 NE7       30.01F FOG
NASHUA NH      CLOUDY    40  39  97 N6        30.03F FOG
PORTSMOUTH NH  CLOUDY    39  38  96 NE9       30.03F FOG
JAFFREY NH     CLOUDY    37  35  92 VRB3      30.00F FOG
KEENE NH       CLOUDY    39  35  86 NE6       30.02F
BURLINGTON VT  CLOUDY    41  37  86 S8        29.96S
MT. WASHINGTON FOG       28  28 100 SW26        N/A  VSB 1/16WCI  13
$$

NYZ052-076-272100-
EASTERN NEW YORK

CITY           SKY/WX    TMP DP  RH WIND       PRES   REMARKS
ALBANY         CLOUDY    45  38  76 S8        29.99F
NEW YORK CITY  CLOUDY    49  42  77 NE9       30.00F
$$

ANZALL-272100-
MARINE OBSERVATIONS

STATION/POSITION TIME  TEMP    WIND        PRES    VSBY  WAVE
                       AIR SEA DIR/SP/G                  HT/PER
                 (UTC) (F)     (DEG/KT/KT) (MB)    (MI)  (FT/S)
BOSTON BUOY      1850   42 40  190/  6/  8 1016.2          5/ 7
BUZZARDS BAY     1900   44     190/ 19/ 19 1016.7F
NANTUCKET SOUND  1950      39              1016.2F         2/ 3
MASS BAY-STELLWA 1904   41 39  220/  4/  6 1015.7F         6/ 7
ISLE OF SHOALS   1900   39      50/ 16/ 18 1017.2F
S OF BLOCK IS    1955      40                N/A           4/ 6
$$

......................KEY.........................
  SKY/WX - SKY CONDITION/PRESENT WEATHER
  TMP    - TEMPERATURE IN FAHRENHEIT
  DWPT   - DEWPOINT IN FAHRENHEIT
  RH     - RELATIVE HUMIDITY IN PERCENT
  WIND   - DIRECTION AND SPEED IN MPH
  PRES   - MEAN SEA LEVEL PRESSURE IN INCHES OF HG
  WCI    - WIND CHILL INDEX
  VSB    - VISIBILITY IN MILES
  HX     - HEAT INDEX
  TC     - TEMPERATURE IN CELSIUS
  VRB    - VARIABLE WIND DIRECTION
  N/A    - NOT AVAILABLE



USA.gov is the U.S. government's official web portal to all federal, state and local government web resources and services.